04:19
Airports
History
Links
Donate
Help keep this website running!
PayPal
Bitcoin
This page is community maintained. The information is intended for PC simulator navigation or reference.
Always use approved charts for navigation.
SWNS
ANAPOLIS
ANAPOLIS (SWNS)
Anápolis, Goiás, Brazil (75104)
(U)
Lat/Lng:16° 21' 44.41" S / 48° 55' 37.39" W
-16.362336 / -48.927053
Elevation:3642'ft / 1110mMSL
ID / ICAO:SWNS
Runways:1
Longest:07-25
Asphalt 1,835m / 6,019ft
Nearby Weather04:00 GMT 2018-02-23
Nearby weather at SBAN, BASE AEREA located 9.6 nautical miles from SWNS
Altimeter: 30.03
Visibility: 6.2 statute miles
Wind: 3 knots (from 310°)
Temp: 19°c / 66°f
Humidity: 93.9%

METAR: SBAN 230400Z 31003KT 9999 FEW020 BKN080 19/18 Q1017

(Powered by phpweather)
Runway 07 / 25
Dimensions:1834.6 x 45.1m 6019' x 148'ft
Surface:Asphalt
Edge Lights:High intensity
Runway 07 [A]Runway 25 [B]
Heading:053°TH 233°TH
Lat:
Lng:
16° 22' 2.09"S
48° 56' 2.36"W
16° 21' 26.73"S
48° 55' 12.42"W
TDZ:Yes, lighted
User Notes and Comments
16° 21' 44.41" S / 48° 55' 37.39" W
Distance To
Airport ID:
Nearby Airports
(C) BASE AEREA 9.6 NM
SBAN ( WX ) NNW 345°
(C) Santo Genoveva 26.9 NM
SBGO ( WX ) SW 226°
(U) AERODROMO NACIONAL DE AVIACAO 33.4 NM
SWNV SW 236°
4 Arnapar 33.6 NM
SWOA WSW 248°
(U) FAZENDA SANTA MONICA 34.9 NM
SWCD NNE 32°
(U) PIRENOPOLIS CENTERAL 35.7 NM
SB06 N 354°
(U) Pirenopolis 35.7 NM
SNMH N 354°
VFR Chart
Flight Planning at SkyVector.com